Location: Home
(42.5358°N, 72.7383°W)
Time: 16:01:28
(UTC-05:00)

Vanguard 1 - Pass Details

Date: 09 December 2021
Orbit: 652 x 3830 km, 34.2° (Epoch: 19 January)

Event Time Altitude Azimuth Distance (km) Brightness Sun altitude
Rises 18:55:10 0° 181° (S) 5,630 14.0 -28.1°
Reaches altitude 10° 19:00:14 10° 164° (SSE) 5,174 13.6 -29.1°
Enters shadow 19:08:02 19° 134° (SE) 5,174 13.3 -30.5°
Maximum altitude 19:10:01 19° 126° (SE) 5,298 - -30.9°
Drops below altitude 10° 19:22:18 10° 91° (E) 6,732 - -33.1°
Sets 19:30:27 0° 77° (ENE) 7,961 - -34.6°
